Showing default

KINEIS-5C, 62081

Orbit data source: Space-Track

KINEIS-5C, 62081 is a French payload satellite in SSO that was launched on Mon, 25 Nov 2024 UTC via an ELECTRON launch vehicle from the Rocket Lab Launch Complex (RLLC). Payload-class satellites include a variety of spacecraft equipped with specific instruments for various scientific and technological missions. These include communications satellites like Starlink; space stations such as the ISS; scientific satellites like the Hubble; Earth observation satellites from companies like Planet Labs, Umbra, and HawkEye 360; GPS; miniature CubeSats for education and research; and military/defense satellites.

Loading next visibility...
Identifier
62081, 2024-219A
Orbit
SSO
Country
Flag of FRFR
Related business
Manufacturer
KINEIS
Mission
Operational Commercial Communications
Bus & Motor
CUBESAT 16U, Unknown motor
Mass
28 kg wet, 28 kg dry
Launch date (UTC)
2024-11-25 (1 year ago)
Launch vehicle
ELECTRON
Launch site
Rocket Lab Launch Complex (RLLC)
Object type
Payload
Rocket body
Debris
Shape & HBR
Box + 2 Pan + 1 Ant, 1.0 m
Radar Cross Section
0.229 m², Medium (>0.1 m² and < 1m²)

Expand to show TLE details & history
Last TLE update: 4 days ago

TLE from 4 days ago
0 KINEIS-5C
1 62081U 24219A   25346.91348439 -.00000111  00000-0 -97545-5 0  9996
2 62081  97.9873 144.8904 0000684 207.5479 152.5693 14.72277460 56343
Epoch: 2025-12-12T21:55Z
TLE epoch observation values (Epoch: 2025-12-12T21:55:25.051Z)
Latitude
0.00006°
Longitude
94.18773°
Altitude
657.242 km
Speed
7.529 km/s
True Right ascension
09h 39m 33s
True Declination
0° 00' 00"
Sunlit
Object was in daylight at epoch
Visualization orbit readout
Latitude
Unknown
Longitude
Unknown
Altitude
Unknown
Speed
Unknown
Apparent Right ascension
Unknown
Apparent Declination
Unknown
Sunlit
N/A
Visualization observer readout
Local Sidereal Time
16:20:11
Azimuth
Unknown
Elevation
Unknown
Doppler factor
Unknown
Orbital elements
Apogee altitude
651.343 km
Perigee altitude
650.381 km
Semi-major axis
7,028.999 km
Eccentricity
0.00007
Inclination
97.9873°
RAAN
144.8904°
Arg. of periapsis
207.5479°
True anomaly
152.57291°
Mean anomaly
152.5693°
Eccentric anomaly
152.57111°
Mean motion
3.68301 °/min
Orbital period
97.75 mins
BSTAR
-0.0000097545
Loading maneuver chart data...
Computing Atmospheric mass density...
Loading historical data...
Loading historical data...
Loading historical data...
Loading historical data...
Loading historical data...
Loading historical data...
Loading historical data...

Documentation

Showing up to 5 results
|